AirNav   Pilot Hours Calculator
 
 1312 users online  

04PN Strawbridge & Clothier Exton Heliport
Exton, Pennsylvania, USA

GOING TO EXTON?


FAA INFORMATION EFFECTIVE 17 JUNE 2021

Location

FAA Identifier: 04PN
Lat/Long: 40-01-50.3830N 075-37-48.7560W
40-01.839717N 075-37.812600W
40.0306619,-75.6302100
(estimated)
Elevation: 320 ft. / 98 m (estimated)
Variation: 11W (1985)
Time zone: UTC -4 (UTC -5 during Standard Time)
Zip code: 19341

Heliport Operations

Heliport use: Private use. Permission required prior to landing
Activation date: 04/1979
Control tower: no
ARTCC: NEW YORK CENTER
FSS: WILLIAMSPORT FLIGHT SERVICE STATION
Attendance: UNATNDD
Wind indicator: no
Segmented circle: no

Heliport Communications

WX AWOS-3T at OQN (3 nm SE): 121.4 ((610) 692-6190)
WX AWOS-3 at MQS (11 nm W): 126.25 (610-384-6132)
WX ASOS at PTW (13 nm N): 119.425 (610-495-0823)
WX AWOS-3 at LOM (18 nm E): 118.925 (215-646-1068)

Nearby radio navigation aids

VOR radial/distance  VOR name  Freq  Var
MXEr024/7.0MODENA VORTAC113.2009W
PTWr205/11.9POTTSTOWN VORTAC116.5009W
DQOr007/21.2DUPONT VORTAC114.0010W
OODr338/28.1WOODSTOWN VORTAC112.8010W
LRPr109/30.8LANCASTER VOR/DME117.3009W
ETXr185/33.1EAST TEXAS VOR/DME110.2009W
ARDr258/35.7YARDLEY VOR/DME108.2010W

 
NDB name  Hdg/Dist  Freq  Var  ID
AMBLER262/16.827512WING .. -. --.

Heliport Services

Runway Information

Helipad H1

Dimensions: 70 x 70 ft. / 21 x 21 m
Surface: concrete, in fair condition
ROOFTOP.
Latitude: 40-01.839717N
Longitude: 075-37.812600W
Elevation: 320.0 ft.
Traffic pattern: leftleft
Markings: none, in fair condition

Heliport Ownership and Management from official FAA records

Ownership: Privately-owned
Owner: STRAWBRIDGE & CLOTHIER
RTES 100 & 30
EXTON, PA 19341
Manager: RONALD B. AVELLINO
801 MARKET ST
PHILADELPHIA, PA 19105
Phone 215-629-6501
VICE PRESIDENT STRAWBRIDGE & CLOTHIER.

Additional Remarks

FOR CD CTC PHILADELPHIA APCH AT 800-354-9884.

Instrument Procedures

There are no published instrument procedures at 04PN.

Some nearby airports with instrument procedures:

KOQN - Brandywine Regional Airport (3 nm SE)
KMQS - Chester County G O Carlson Airport (11 nm W)
KPTW - Heritage Field Airport (13 nm N)
N57 - New Garden Airport (14 nm SW)
N10 - Perkiomen Valley Airport (14 nm NE)
N47 - Pottstown Municipal Airport (14 nm N)
KLOM - Wings Field Airport (18 nm E)
 
Loc | Ops | Rwys | IFR | FBO | Links
Com | Nav | Svcs | Stats | Notes
Area around 04PN (Strawbridge & Clothier Exton Heliport)
 
Road maps at: MapQuest Bing Google
 
Aerial photo
No photo
 
Sectional chart

 
Airport distance calculator
Flying to Strawbridge & Clothier Exton Heliport? Find the distance to fly.

From to 04PN

Sunrise and sunset
Times for 17-Jun-2021
 Local
(UTC-4)
 Zulu
(UTC)
Morning civil twilight05:0109:01
Sunrise05:3409:34
Sunset20:3300:33
Evening civil twilight21:0601:06

Current date and time
Zulu (UTC)  18-Jun-2021 00:07:51
Local (UTC-4)  17-Jun-2021 20:07:51
 
METAR
KOQN 
3nm SE 
172355Z AUTO 00000KT 10SM CLR 23/03 A3002 RMK AO2
KMQS 
11nm W 
172355Z AUTO 32003KT 10SM CLR 20/09 A3003 RMK AO2
KPTW 
13nm N 
172354Z AUTO 31003KT CLR 21/06 A3002 RMK AO2 SLP162 T02110056 10239 20211 53005 $
KLOM 
18nm E 
172355Z AUTO 28003KT 10SM CLR 22/08 A3001 RMK AO2 T02190078 10251 20211 402510094
TAF
KPHL 
21nm SE 
172057Z 1721/1824 31008KT P6SM FEW250 FM180000 VRB04KT P6SM SKC FM181500 23009KT P6SM SCT150 FM182100 19008KT P6SM SCT090
KILG 
22nm S 
171724Z 1718/1818 30006KT P6SM SKC FM172300 VRB04KT P6SM SKC FM181400 23006KT P6SM FEW200
NOTAMs
Click for the latest NOTAMs
NOTAMs are issued by the DoD/FAA and will open in a separate window not controlled by AirNav.

 

 
 

Would you like to see your business listed on this page?

 If your business provides an interesting product or service to pilots, flight crews, aircraft, or users of the Strawbridge & Clothier Exton Heliport, you should consider listing it here.  To start the listing process, click on the button below
 
Add a business
 

Other Pages about Strawbridge & Clothier Exton Heliport

Update a link
 
Copyright © AirNav, LLC. All rights reserved. Privacy Policy  Contact